Regional Weather Roundup
Issued by NWS

Home | Current Version | Previous Version | Graphics & Text | Print | Product List | Glossary On
Versions: 1 2 3 4 5 6 7 8 9 10 11 12 13 14 15 16 17 18 19 20 21 22 23 24 25 26 27 28 29 30 31 32 33 34 35 36 37 38 39 40 41 42 43 44 45 46 47 48 49 50
000
ASUS43 KIND 282359
RWRIN

WEATHER ROUNDUP FOR INDIANA
NATIONAL WEATHER SERVICE INDIANAPOLIS IN
800 PM EDT THU MAY 28 2015

NOTE: "FAIR" INDICATES FEW OR NO CLOUDS BELOW 12,000 FEET WITH NO
SIGNIFICANT WEATHER AND/OR OBSTRUCTIONS TO VISIBILITY.

* - STATION DOES NOT REPORT WEATHER SUCH AS PRECIPITATION OR FOG.

+ - STATION NOT QUALITY CONTROLLED BY THE NATIONAL WEATHER SERVICE.
    USE DATA WITH CAUTION...ESPECIALLY DEWPOINT AND RELATIVE
    HUMIDITY OBSERVATIONS.

INZ001>003-010>013-019-020-290100-
NORTHWEST INDIANA

CITY           SKY/WX    TMP DP  RH WIND       PRES   REMARKS
RENSSELAER +   MOSUNNY   81  50  34 S7        30.10R

$$

LMZ046-743>745-290100-
SOUTHERN LAKE MICHIGAN

STATION/POSITION TIME  TEMP    WIND        PRES    WAVE
                       AIR SEA DIR/SP/G            HT
                 (UTC) (F)     (DEG/KT/KT) (MB)    (FT)
BURNS HARBOR     2300   62      80/  9/ 11 1020.3F
MICHIGAN CITY    2300   63      30/ 13/ 14   N/A
5NW MICH CITY    2300   61 55   70/  8/ 10   N/A     1

$$

INZ004-005-014>016-021>024-290100-
NORTH CENTRAL INDIANA

CITY           SKY/WX    TMP DP  RH WIND       PRES   REMARKS
ELKHART        SUNNY     77  54  44 CALM      30.15F
GOSHEN         SUNNY     75  59  57 E8        30.14F
6HR MIN TEMP:  75; 6HR MAX TEMP:  82;

SOUTH BEND     SUNNY     80  53  39 SE10      30.14F
6HR MIN TEMP:  79; 6HR MAX TEMP:  83;


$$

INZ006>009-017-018-025>027-290100-
NORTHEAST INDIANA

CITY           SKY/WX    TMP DP  RH WIND       PRES   REMARKS
ANGOLA *+      SUNNY     79  55  44 SE12      30.17F
FORT WAYNE     MOSUNNY   78  59  51 E7        30.15S
6HR MIN TEMP:  77; 6HR MAX TEMP:  82;


$$

INZ028-029-035-036-043>045-051>053-290100-
WEST CENTRAL INDIANA

CITY           SKY/WX    TMP DP  RH WIND       PRES   REMARKS
CRAWFORDSVL +  MOSUNNY   80  51  36 SE6       30.11R
6HR MIN TEMP:  77; 6HR MAX TEMP:  83;

GREENCASTLE +  SUNNY     77  55  47 S3        30.11S
LAFAYETTE      SUNNY     80  55  42 S3        30.09S
6HR MIN TEMP:  76; 6HR MAX TEMP:  82;

TERRE HAUTE    MOSUNNY   80  63  55 SE9       30.09R
6HR MIN TEMP:  80; 6HR MAX TEMP:  86;


$$

INZ030>032-037>040-046>048-054>057-064-065-290100-
CENTRAL INDIANA

CITY           SKY/WX    TMP DP  RH WIND       PRES   REMARKS
COLUMBUS       PTCLDY    77  57  50 SE8       30.14R
GREENWOOD *+   SUNNY     81  57  44 S10       30.13R
INDIANAPOLIS   MOSUNNY   80  60  50 S9        30.10S
6HR MIN TEMP:  80; 6HR MAX TEMP:  84;

-EAGLE CREEK   SUNNY     81  60  48 S7        30.11R
6HR MIN TEMP:  79; 6HR MAX TEMP:  84;

KOKOMO *+      MOSUNNY   81  57  44 S8        30.11S
6HR MIN TEMP:  79; 6HR MAX TEMP:  82;

MT COMFORT *+  MOSUNNY   82  45  26 S9        30.13R
SHELBYVILLE    CLEAR     82  63  52 SE10      30.12R
6HR MIN TEMP:  82; 6HR MAX TEMP:  87;


$$

INZ033-034-041-042-049-050-058-059-290100-
EAST CENTRAL INDIANA

CITY           SKY/WX    TMP DP  RH WIND       PRES   REMARKS
MUNCIE         PTCLDY    81  59  47 S5        30.14R
6HR MIN TEMP:  80; 6HR MAX TEMP:  85;


$$

INZ060-061-067>069-081>083-085>088-290100-
SOUTHWEST INDIANA

CITY           SKY/WX    TMP DP  RH WIND       PRES   REMARKS
EVANSVILLE     SUNNY     82  63  52 SE6       30.09S
6HR MIN TEMP:  81; 6HR MAX TEMP:  84;

HUNTINGBURG *+ MOSUNNY   75  66  73 CALM      30.11S
6HR MIN TEMP:  75; 6HR MAX TEMP:  82;


$$

INZ062-063-066-070>080-084-089>092-290100-
SOUTH CENTRAL AND SOUTHEAST INDIANA

CITY           SKY/WX    TMP DP  RH WIND       PRES   REMARKS
BLOOMINGTON    SUNNY     79  65  62 S7        30.12S
6HR MIN TEMP:  79; 6HR MAX TEMP:  84;

MADISON *+     CLEAR     77  61  57 CALM      30.16S
SEYMOUR +      PTCLDY    81  63  54 SE6       30.13R

$$



USA.gov is the U.S. government's official web portal to all federal, state and local government web resources and services.